TimeAKDT,TemperatureF,Dew PointF,Humidity,Sea Level PressureIn,VisibilityMPH,Wind Direction,Wind SpeedMPH,Gust SpeedMPH,PrecipitationIn,Events,Conditions,WindDirDegrees,DateUTC
12:53 AM,48.9,46.9,93,29.83,5.0,Calm,Calm,-,0.12,Rain,Rain,0,2013-07-01 08:53:00
1:53 AM,50.0,48.0,93,29.82,4.0,Calm,Calm,-,0.13,Rain,Rain,0,2013-07-01 09:53:00
2:53 AM,48.9,46.9,93,29.80,5.0,Calm,Calm,-,0.13,Rain,Light Rain,0,2013-07-01 10:53:00
3:53 AM,48.0,46.9,96,29.76,6.0,Calm,Calm,-,0.11,Rain,Light Rain,0,2013-07-01 11:53:00
4:53 AM,48.0,46.9,96,29.73,6.0,Calm,Calm,-,0.07,Rain,Light Rain,0,2013-07-01 12:53:00
5:53 AM,48.0,46.0,93,29.72,8.0,Calm,Calm,-,0.06,Rain,Light Rain,0,2013-07-01 13:53:00
6:53 AM,48.0,46.0,93,29.70,6.0,Calm,Calm,-,0.06,Rain,Light Rain,0,2013-07-01 14:53:00
7:53 AM,48.0,45.0,89,29.68,9.0,South,8.1,-,0.03,Rain,Light Rain,190,2013-07-01 15:53:00
8:53 AM,50.0,44.1,80,29.67,10.0,South,9.2,19.6,0.02,Rain,Light Rain,170,2013-07-01 16:53:00
9:53 AM,51.1,46.9,86,29.65,10.0,Variable,3.5,-,0.02,Rain,Light Rain,0,2013-07-01 17:53:00
10:53 AM,51.1,48.0,89,29.63,8.0,Calm,Calm,-,0.01,Rain,Light Rain,0,2013-07-01 18:53:00
11:53 AM,51.1,48.9,92,29.63,9.0,NNE,3.5,-,0.01,Rain,Light Rain,20,2013-07-01 19:53:00
12:53 PM,52.0,48.9,89,29.61,10.0,Calm,Calm,-,0.01,Rain,Light Rain,0,2013-07-01 20:53:00
1:53 PM,52.0,50.0,93,29.60,10.0,NNE,3.5,-,0.00,Rain,Light Rain,20,2013-07-01 21:53:00
2:42 PM,51.8,50.0,94,29.60,10.0,NNE,3.5,-,0.01,Rain,Light Rain,20,2013-07-01 22:42:00
2:49 PM,51.8,50.0,94,29.60,9.0,NNE,3.5,-,0.01,Rain,Light Rain,20,2013-07-01 22:49:00
2:53 PM,52.0,50.0,93,29.60,9.0,NE,5.8,-,0.01,Rain,Light Rain,40,2013-07-01 22:53:00
3:53 PM,51.1,50.0,96,29.59,4.0,NE,3.5,-,0.02,Rain,Light Rain,40,2013-07-01 23:53:00
4:09 PM,51.8,50.0,94,29.58,2.5,NNE,4.6,-,0.01,Rain,Light Rain,30,2013-07-02 00:09:00
4:13 PM,51.8,50.0,94,29.58,3.0,NNE,5.8,-,0.01,Rain,Light Rain,20,2013-07-02 00:13:00
4:25 PM,51.8,50.0,94,29.58,6.0,Calm,Calm,-,0.01,Rain,Light Rain,0,2013-07-02 00:25:00
4:53 PM,52.0,51.1,97,29.58,10.0,Calm,Calm,-,0.02,Rain,Light Rain,0,2013-07-02 00:53:00
5:26 PM,51.8,48.2,88,29.58,9.0,NNE,4.6,-,0.01,Rain,Light Rain,20,2013-07-02 01:26:00
5:53 PM,50.0,48.0,93,29.58,8.0,North,5.8,-,0.02,Rain,Light Rain,10,2013-07-02 01:53:00
6:28 PM,50.0,48.2,94,29.57,10.0,Calm,Calm,-,0.02,,Overcast,0,2013-07-02 02:28:00
6:53 PM,50.0,48.9,96,29.57,9.0,Calm,Calm,-,0.02,Rain,Light Rain,0,2013-07-02 02:53:00
7:01 PM,50.0,48.2,94,29.56,10.0,NNW,3.5,-,0.00,Rain,Light Rain,340,2013-07-02 03:01:00
7:53 PM,51.1,48.9,92,29.56,10.0,Calm,Calm,-,0.03,Rain,Light Rain,0,2013-07-02 03:53:00
8:53 PM,52.0,50.0,93,29.56,10.0,Calm,Calm,-,0.00,Rain,Light Rain,0,2013-07-02 04:53:00
9:53 PM,51.1,50.0,96,29.56,10.0,Calm,Calm,-,0.00,,Overcast,0,2013-07-02 05:53:00
10:08 PM,51.8,48.2,88,29.56,10.0,Calm,Calm,-,N/A,,Overcast,0,2013-07-02 06:08:00
10:38 PM,50.0,48.2,94,29.58,2.5,South,8.1,-,0.01,Rain,Light Rain,180,2013-07-02 06:38:00
10:45 PM,48.2,46.4,93,29.58,7.0,South,5.8,-,0.01,Rain,Light Rain,190,2013-07-02 06:45:00
10:53 PM,48.9,46.9,93,29.58,8.0,SSW,4.6,-,0.01,Rain,Light Rain,210,2013-07-02 06:53:00
11:05 PM,48.2,46.4,93,29.58,10.0,South,5.8,-,0.00,,Overcast,190,2013-07-02 07:05:00
11:53 PM,48.0,46.0,93,29.60,10.0,South,5.8,-,0.00,,Overcast,180,2013-07-02 07:53:00